7 * 24
多渠道服务支持
GALILEO 6(编号262)是欧洲空间局(ESA)于2014年8月22日发射的伽利略全球卫星导航系统卫星。作为欧盟自主建设的导航星座组成部分,它承担着全球定位、导航与授时服务任务,为民用用户提供高精度定位服务,提升了伽利略系统的全球覆盖能力与服务稳定性,推动欧洲摆脱对其他导航系统的依赖,促进全球卫星导航领域多元化发展。
(ESA)
| 数据来源 | 国际轨道数据 |
| 星历时间: | 2026-09-08T11:17:08+0800 3天前 查看轨道信息 |
| 半长轴: | 27977.433km |
| 偏心率: | 0.1687306 |
| 轨道倾角: | 48.806° |
| 近地点辐角 | 183.309° |
| 升交点赤经 | 269.113° |
| 平近点角 | 175.437° |
| 近地点: | 16878.646km |
| 远地点: | 26319.946km |
| 周期: | 776.196分钟 |
| 每日圈数: | 1.855201 |